| time (UTC) | temp F | wind direction | speed MPH | gust MPH | rain 1hr in | rain 24hr in | rain mn in | humidity % | barometer mb |
| 20260901063053 | 65 | 183 | 0.0 | 0.0 | 0.00 | 0.00 | 0.08 | 96 | 1014.3 |
| 20260901061555 | 65 | 183 | 0.0 | 0.0 | 0.00 | 0.00 | 0.06 | 96 | 1014.5 |
| 20260901060050 | 65 | 183 | 0.0 | 0.0 | 0.00 | 0.00 | 0.02 | 96 | 1014.6 |
| 20260901054549 | 65 | 183 | 0.0 | 0.0 | 0.00 | 0.00 | 0.02 | 95 | 1014.3 |
| 20260901053116 | 65 | 184 | 0.0 | 0.0 | 0.00 | 0.00 | 0.02 | 95 | 1014.7 |
| 20260901051548 | 65 | 184 | 0.0 | 0.0 | 0.00 | 0.00 | 0.01 | 95 | 1015.2 |
| 20260901050054 | 65 | 184 | 0.0 | 0.0 | 0.00 | 0.00 | 0.01 | 95 | 1015.0 |
| 20260901044545 | 66 | 184 | 0.0 | 0.0 | 0.00 | 0.00 | 0.01 | 95 | 1014.9 |
| 20260901043044 | 66 | 184 | 0.0 | 0.0 | 0.00 | 0.00 | 0.01 | 95 | 1014.8 |
| 20260901041542 | 66 | 184 | 0.0 | 0.0 | 0.00 | 0.00 | 0.00 | 95 | 1014.8 |
| 20260901040040 | 66 | 184 | 0.0 | 0.0 | 0.00 | 0.00 | 0.00 | 95 | 1014.7 |
| 20260901034538 | 66 | 184 | 0.0 | 0.0 | 0.00 | 0.00 | 0.00 | 95 | 1015.1 |
| 20260901033037 | 66 | 183 | 0.0 | 0.0 | 0.00 | 0.00 | 0.00 | 95 | 1015.4 |
| 20260901031548 | 66 | 184 | 0.0 | 0.0 | 0.00 | 0.00 | 0.00 | 94 | 1015.4 |
| 20260901030036 | 66 | 183 | 0.0 | 0.0 | 0.00 | 0.00 | 0.00 | 94 | 1015.4 |
| 20260901024535 | 66 | 183 | 0.0 | 0.0 | 0.00 | 0.00 | 0.00 | 94 | 1015.4 |
| 20260901023039 | 66 | 184 | 0.0 | 0.0 | 0.00 | 0.00 | 0.00 | 93 | 1015.5 |
| 20260901021532 | 66 | 184 | 0.0 | 0.0 | 0.00 | 0.00 | 0.00 | 93 | 1015.6 |
| 20260901020031 | 66 | 184 | 0.0 | 0.0 | 0.00 | 0.00 | 0.00 | 92 | 1015.7 |
| 20260901014531 | 66 | 184 | 0.0 | 0.0 | 0.00 | 0.00 | 0.00 | 92 | 1015.8 |
| 20260901013033 | 66 | 184 | 0.0 | 0.0 | 0.00 | 0.00 | 0.00 | 91 | 1015.5 |
| 20260901011529 | 67 | 184 | 0.0 | 0.0 | 0.00 | 0.00 | 0.00 | 91 | 1015.6 |
| 20260901010034 | 67 | 184 | 0.0 | 0.0 | 0.00 | 0.00 | 0.00 | 90 | 1016.0 |
| 20260901004525 | 67 | 184 | 0.0 | 0.0 | 0.00 | 0.00 | 0.00 | 88 | 1015.7 |
| 20260901003025 | 68 | 183 | 0.0 | 0.0 | 0.00 | 0.00 | 0.00 | 87 | 1015.6 |
| 20260901001525 | 68 | 184 | 0.0 | 0.0 | 0.00 | 0.00 | 0.00 | 87 | 1015.6 |
| 20260901000020 | 69 | 184 | 0.0 | 0.0 | 0.00 | 0.00 | 0.00 | 87 | 1015.5 |
| 20260831234517 | 70 | 184 | 0.0 | 0.0 | 0.00 | 0.00 | 0.00 | 85 | 1015.6 |
| 20260831233016 | 70 | 184 | 0.0 | 0.0 | 0.00 | 0.00 | 0.00 | 84 | 1015.6 |
| 20260831231512 | 70 | 184 | 0.0 | 0.0 | 0.00 | 0.00 | 0.00 | 83 | 1015.8 |
| 20260831230013 | 71 | 184 | 0.0 | 0.0 | 0.00 | 0.00 | 0.00 | 83 | 1016.0 |
| 20260831224509 | 71 | 186 | 0.0 | 0.0 | 0.00 | 0.00 | 0.00 | 81 | 1016.0 |
| 20260831223007 | 72 | 192 | 0.0 | 0.0 | 0.00 | 0.00 | 0.00 | 81 | 1016.1 |
| 20260831221520 | 72 | 174 | 0.0 | 0.0 | 0.00 | 0.00 | 0.00 | 80 | 1016.1 |
| 20260831220005 | 72 | 173 | 0.0 | 0.0 | 0.00 | 0.00 | 0.00 | 80 | 1016.1 |
| 20260831214504 | 73 | 178 | 1.0 | 0.0 | 0.00 | 0.00 | 0.00 | 79 | 1016.0 |
| 20260831213005 | 73 | 175 | 1.0 | 0.0 | 0.00 | 0.00 | 0.00 | 78 | 1016.0 |
| 20260831211503 | 74 | 163 | 1.0 | 0.0 | 0.00 | 0.00 | 0.00 | 77 | 1015.9 |
| 20260831210005 | 74 | 231 | 2.0 | 0.0 | 0.00 | 0.00 | 0.00 | 77 | 1015.8 |
| 20260831204600 | 74 | 211 | 2.0 | 0.0 | 0.00 | 0.00 | 0.00 | 78 | 1016.1 |
| 20260831203058 | 74 | 229 | 2.0 | 0.0 | 0.00 | 0.00 | 0.00 | 78 | 1016.3 |
| 20260831201558 | 74 | 220 | 1.0 | 0.0 | 0.00 | 0.00 | 0.00 | 79 | 1016.4 |
| 20260831200055 | 74 | 179 | 0.0 | 0.0 | 0.00 | 0.00 | 0.00 | 78 | 1016.5 |
| 20260831194634 | 74 | 110 | 1.0 | 0.0 | 0.00 | 0.00 | 0.00 | 80 | 1016.6 |
| 20260831193049 | 73 | 215 | 1.0 | 0.0 | 0.00 | 0.00 | 0.00 | 80 | 1016.8 |
| 20260831191544 | 73 | 186 | 0.0 | 0.0 | 0.00 | 0.00 | 0.00 | 84 | 1016.9 |